Orlando, FL

11:59 PM EDT on August 29, 2016 (GMT -0400)
Executive

Weather History for KORL - June, 2013

Change the Weather History Date:

Sunday, June 30, 2013

  Actual Average Record
Temperature  
Mean Temperature 81 °F -  
Max Temperature 90 °F 88 °F 100 °F (1998)
Min Temperature 73 °F 71 °F 72 °F (1999)
Cooling Degree Days 16    
Growing Degree Days 31 (Base 50)    
Moisture  
Dew Point 73 °F    
Average Humidity 86    
Maximum Humidity 100    
Minimum Humidity 55    
Precipitation  
Precipitation 0.81 in - - ()
Sea Level Pressure  
Sea Level Pressure 29.87 in    
Wind  
Wind Speed 10 mph (SSW)    
Max Wind Speed 45 mph    
Max Gust Speed 66 mph    
Visibility 8 miles    
Events Fog , Rain , Thunderstorm    
Averages and records for this station are not official NWS values.
T = Trace of Precipitation, MM = Missing Value Source: NWS Daily Summary

Daily Weather History Graph

Daily Weather History Graph

Search for Another Location

Airport or City:

Trip Planner

Search our weather history database for the weather conditions in past years. The results will help you decide how hot, cold, wet, or windy it might be!

Date:

Astronomy

Jun. 30, 2013 Rise Set
Actual Time 6:30 AM EDT 8:27 PM EDT
Civil Twilight 6:04 AM EDT 8:53 PM EDT
Nautical Twilight 5:31 AM EDT 9:26 PM EDT
Astronomical Twilight 4:57 AM EDT 10:00 PM EDT
Moon 1:05 AM EDT 2:01 PM EDT
Length of Visible Light 14h 49m
Length of Day
13h 56m
Last Quarter, 45% of the Moon is Illuminated
Jun 30
Last Quarter
Jul 8
New
Jul 15
First Quarter
Jul 22
Full
Jul 29
Last Quarter

Hourly Weather History & Observations

Time (EDT) Temp. Heat Index Dew Point Humidity Pressure Visibility Wind Dir Wind Speed Gust Speed Precip Events Conditions
12:53 AM 77.0 °F - 72.0 °F 84% 29.87 in 10.0 mi SSW 9.2 mph - N/A   Clear
1:53 AM 77.0 °F - 72.0 °F 84% 29.86 in 10.0 mi SSW 8.1 mph - N/A   Clear
2:53 AM 75.9 °F - 72.0 °F 87% 29.85 in 10.0 mi SSW 6.9 mph - N/A   Clear
3:53 AM 75.9 °F - 72.0 °F 87% 29.85 in 10.0 mi South 6.9 mph - N/A   Clear
4:53 AM 75.0 °F - 73.0 °F 94% 29.85 in 10.0 mi South 6.9 mph - N/A   Clear
5:53 AM 75.0 °F - 73.0 °F 94% 29.85 in 10.0 mi South 8.1 mph - N/A   Clear
6:53 AM 75.0 °F - 73.0 °F 94% 29.87 in 10.0 mi South 5.8 mph - N/A   Clear
7:53 AM 77.0 °F - 73.9 °F 90% 29.88 in 10.0 mi South 6.9 mph - N/A   Clear
8:53 AM 81.0 °F 86.7 °F 75.0 °F 82% 29.88 in 10.0 mi SSW 9.2 mph - N/A   Clear
9:53 AM 84.0 °F 91.9 °F 75.0 °F 74% 29.89 in 10.0 mi SSW 12.7 mph - N/A   Scattered Clouds
10:26 AM 84.2 °F 92.3 °F 75.2 °F 74% 29.87 in 10.0 mi SSW 11.5 mph - N/A   Mostly Cloudy
10:53 AM 86.0 °F 93.8 °F 73.9 °F 67% 29.87 in 10.0 mi SSW 15.0 mph - N/A   Mostly Cloudy
11:03 AM 84.2 °F 90.9 °F 73.4 °F 70% 29.86 in 10.0 mi SSW 11.5 mph 20.7 mph N/A   Mostly Cloudy
11:53 AM 88.0 °F 95.6 °F 73.0 °F 61% 29.86 in 10.0 mi SSW 11.5 mph - N/A   Partly Cloudy
12:49 PM 89.6 °F 96.2 °F 71.6 °F 55% 29.85 in 10.0 mi SW 16.1 mph - N/A   Mostly Cloudy
12:53 PM 86.0 °F 93.0 °F 73.0 °F 65% 29.86 in 10.0 mi WSW 11.5 mph - N/A Thunderstorm Thunderstorm
1:06 PM 77.0 °F - 71.6 °F 83% 29.87 in 0.8 mi SW 44.9 mph 65.6 mph 0.25 in Rain , Thunderstorm Thunderstorms and Rain
1:08 PM 73.4 °F - 71.6 °F 94% 29.88 in 0.2 mi WSW 25.3 mph 65.6 mph 0.47 in Fog , Rain , Thunderstorm Heavy Thunderstorms and Rain
1:17 PM 73.4 °F - 69.8 °F 88% 29.88 in 0.5 mi SW 9.2 mph 29.9 mph 0.63 in Fog , Rain , Thunderstorm Heavy Thunderstorms and Rain
1:19 PM 73.4 °F - 69.8 °F 88% 29.87 in 4.0 mi SSW 6.9 mph 17.3 mph 0.64 in Rain Rain
1:53 PM 77.0 °F - 72.0 °F 84% 29.87 in 4.0 mi Calm Calm - 0.64 in Rain Rain
2:53 PM 80.1 °F 85.1 °F 75.0 °F 85% 29.87 in 10.0 mi Calm Calm - 0.00 in   Partly Cloudy
3:01 PM 80.6 °F 86.2 °F 75.2 °F 84% 29.86 in 10.0 mi South 5.8 mph - N/A Thunderstorm Thunderstorm
3:21 PM 75.2 °F - 71.6 °F 89% 29.89 in 1.8 mi West 12.7 mph 40.3 mph 0.10 in Rain , Thunderstorm Heavy Thunderstorms and Rain
3:34 PM 73.4 °F - 71.6 °F 94% 29.88 in 3.0 mi Calm Calm - 0.14 in Rain , Thunderstorm Light Thunderstorms and Rain
3:53 PM 75.0 °F - 73.0 °F 94% 29.89 in 10.0 mi West 4.6 mph - 0.14 in Thunderstorm Thunderstorm
4:53 PM 75.9 °F - 72.0 °F 87% 29.90 in 10.0 mi South 11.5 mph - N/A   Mostly Cloudy
5:53 PM 75.0 °F - 73.0 °F 94% 29.88 in 10.0 mi SSE 8.1 mph - 0.02 in Rain Light Rain
6:53 PM 75.0 °F - 73.0 °F 94% 29.88 in 10.0 mi SSE 6.9 mph - 0.01 in   Clear
7:53 PM 75.0 °F - 73.0 °F 94% 29.88 in 10.0 mi SE 13.8 mph - N/A   Clear
8:23 PM 73.4 °F - 73.4 °F 100% 29.88 in 10.0 mi SE 15.0 mph - N/A   Partly Cloudy
8:53 PM 73.9 °F - 73.0 °F 97% 29.89 in 10.0 mi SSE 9.2 mph - N/A   Partly Cloudy
9:53 PM 75.0 °F - 73.0 °F 94% 29.87 in 10.0 mi SSE 8.1 mph - N/A   Clear
10:05 PM 73.4 °F - 73.4 °F 100% 29.87 in 10.0 mi South 9.2 mph - N/A   Partly Cloudy
10:53 PM 75.0 °F - 73.0 °F 94% 29.91 in 10.0 mi South 8.1 mph - N/A   Clear
11:53 PM 73.9 °F - 72.0 °F 93% 29.92 in 10.0 mi SSE 8.1 mph - N/A   Clear